| time (UTC) | temp F | wind direction | speed MPH | gust MPH | rain 1hr in | rain 24hr in | rain mn in | humidity % | barometer mb |
| 20260902142626 | 65 | 202 | 3.0 | 8.0 | 0.00 | 0.00 | 0.00 | 42 | 1012.6 |
| 20260902141614 | 65 | 195 | 4.0 | 7.0 | 0.00 | 0.00 | 0.00 | 44 | 1012.4 |
| 20260902140629 | 65 | 198 | 4.0 | 6.0 | 0.00 | 0.00 | 0.00 | 43 | 1012.3 |
| 20260902135630 | 65 | 188 | 5.0 | 9.0 | 0.00 | 0.00 | 0.00 | 40 | 1012.2 |
| 20260902134622 | 63 | 179 | 3.0 | 10.0 | 0.00 | 0.00 | 0.00 | 45 | 1012.1 |
| 20260902133651 | 61 | 190 | 2.0 | 3.0 | 0.00 | 0.00 | 0.00 | 48 | 1012.1 |
| 20260902132616 | 60 | 91 | 2.0 | 4.0 | 0.00 | 0.00 | 0.00 | 50 | 1012.0 |
| 20260902131629 | 60 | 88 | 0.0 | 0.0 | 0.00 | 0.00 | 0.00 | 51 | 1011.9 |
| 20260902130628 | 60 | 88 | 0.0 | 2.0 | 0.00 | 0.00 | 0.00 | 52 | 1011.7 |
| 20260902125613 | 61 | 88 | 0.0 | 2.0 | 0.00 | 0.00 | 0.00 | 52 | 1011.6 |
| 20260902124623 | 62 | 88 | 1.0 | 3.0 | 0.00 | 0.00 | 0.00 | 51 | 1011.4 |
| 20260902123650 | 62 | 245 | 0.0 | 1.0 | 0.00 | 0.00 | 0.00 | 52 | 1011.3 |
| 20260902122629 | 63 | 245 | 0.0 | 3.0 | 0.00 | 0.00 | 0.00 | 51 | 1011.3 |
| 20260902121618 | 65 | 217 | 1.0 | 3.0 | 0.00 | 0.00 | 0.00 | 49 | 1011.1 |
| 20260902120629 | 67 | 217 | 1.0 | 5.0 | 0.00 | 0.00 | 0.00 | 46 | 1011.1 |
| 20260902115612 | 67 | 198 | 2.0 | 5.0 | 0.00 | 0.00 | 0.00 | 45 | 1011.0 |
| 20260902114623 | 68 | 204 | 2.0 | 6.0 | 0.00 | 0.00 | 0.00 | 44 | 1011.0 |
| 20260902113619 | 68 | 208 | 3.0 | 9.0 | 0.00 | 0.00 | 0.00 | 45 | 1010.8 |
| 20260902112630 | 67 | 176 | 5.0 | 8.0 | 0.00 | 0.00 | 0.00 | 45 | 1011.0 |
| 20260902111622 | 68 | 181 | 4.0 | 13.0 | 0.00 | 0.00 | 0.00 | 44 | 1011.0 |
| 20260902110612 | 68 | 175 | 6.0 | 13.0 | 0.00 | 0.00 | 0.00 | 43 | 1010.9 |
| 20260902105620 | 68 | 194 | 5.0 | 9.0 | 0.00 | 0.00 | 0.00 | 45 | 1011.0 |
| 20260902104631 | 68 | 208 | 6.0 | 11.0 | 0.00 | 0.00 | 0.00 | 46 | 1010.9 |
| 20260902103622 | 67 | 200 | 5.0 | 9.0 | 0.00 | 0.00 | 0.00 | 47 | 1010.9 |
| 20260902102614 | 69 | 182 | 5.0 | 12.0 | 0.00 | 0.00 | 0.00 | 46 | 1011.0 |
| 20260902101629 | 67 | 159 | 7.0 | 13.0 | 0.00 | 0.00 | 0.00 | 48 | 1011.0 |
| 20260902100621 | 68 | 198 | 5.0 | 9.0 | 0.00 | 0.00 | 0.00 | 47 | 1011.0 |
| 20260902095623 | 68 | 197 | 4.0 | 9.0 | 0.00 | 0.00 | 0.00 | 47 | 1011.0 |
| 20260902094618 | 71 | 225 | 1.0 | 14.0 | 0.00 | 0.00 | 0.00 | 42 | 1011.0 |
| 20260902093650 | 72 | 171 | 7.0 | 13.0 | 0.00 | 0.00 | 0.00 | 39 | 1011.0 |
| 20260902092620 | 71 | 229 | 2.0 | 12.0 | 0.00 | 0.00 | 0.00 | 43 | 1011.1 |
| 20260902091630 | 70 | 196 | 4.0 | 10.0 | 0.00 | 0.00 | 0.00 | 42 | 1011.1 |
| 20260902090622 | 68 | 187 | 2.0 | 5.0 | 0.00 | 0.00 | 0.00 | 49 | 1011.1 |
| 20260902085629 | 69 | 200 | 3.0 | 5.0 | 0.00 | 0.00 | 0.00 | 49 | 1011.1 |
| 20260902084620 | 70 | 219 | 1.0 | 8.0 | 0.00 | 0.00 | 0.00 | 45 | 1011.1 |
| 20260902083612 | 70 | 190 | 4.0 | 12.0 | 0.00 | 0.00 | 0.00 | 45 | 1011.1 |
| 20260902082627 | 67 | 213 | 0.0 | 2.0 | 0.00 | 0.00 | 0.00 | 52 | 1011.1 |
| 20260902081618 | 68 | 213 | 1.0 | 5.0 | 0.00 | 0.00 | 0.00 | 49 | 1011.1 |
| 20260902080630 | 69 | 196 | 3.0 | 6.0 | 0.00 | 0.00 | 0.00 | 46 | 1011.0 |
| 20260902075612 | 70 | 224 | 1.0 | 9.0 | 0.00 | 0.00 | 0.00 | 46 | 1011.0 |
| 20260902074626 | 72 | 171 | 3.0 | 8.0 | 0.00 | 0.00 | 0.00 | 42 | 1010.9 |
| 20260902073616 | 73 | 225 | 3.0 | 9.0 | 0.00 | 0.00 | 0.00 | 40 | 1010.7 |
| 20260902072627 | 74 | 206 | 5.0 | 11.0 | 0.00 | 0.00 | 0.00 | 39 | 1010.8 |
| 20260902071617 | 74 | 138 | 5.0 | 9.0 | 0.00 | 0.00 | 0.00 | 40 | 1010.6 |
| 20260902070613 | 74 | 180 | 6.0 | 12.0 | 0.00 | 0.00 | 0.00 | 41 | 1010.5 |
| 20260902065615 | 74 | 186 | 4.0 | 12.0 | 0.00 | 0.00 | 0.00 | 42 | 1010.5 |
| 20260902064627 | 74 | 178 | 3.0 | 7.0 | 0.00 | 0.00 | 0.00 | 41 | 1010.5 |
| 20260902063619 | 74 | 173 | 3.0 | 9.0 | 0.00 | 0.00 | 0.00 | 39 | 1010.5 |
| 20260902062614 | 75 | 213 | 4.0 | 9.0 | 0.00 | 0.00 | 0.00 | 37 | 1010.6 |
| 20260902061646 | 75 | 167 | 6.0 | 14.0 | 0.00 | 0.00 | 0.00 | 37 | 1010.5 |
| 20260902060623 | 74 | 173 | 4.0 | 8.0 | 0.00 | 0.00 | 0.00 | 38 | 1010.6 |
| 20260902055626 | 74 | 179 | 3.0 | 12.0 | 0.00 | 0.00 | 0.00 | 39 | 1010.6 |
| 20260902054617 | 74 | 190 | 3.0 | 10.0 | 0.00 | 0.00 | 0.00 | 39 | 1010.6 |
| 20260902053630 | 74 | 134 | 4.0 | 11.0 | 0.00 | 0.00 | 0.00 | 39 | 1010.6 |
| 20260902052621 | 74 | 146 | 6.0 | 12.0 | 0.00 | 0.00 | 0.00 | 39 | 1010.8 |
| 20260902051653 | 74 | 128 | 5.0 | 10.0 | 0.00 | 0.00 | 0.00 | 38 | 1010.8 |
| 20260902050621 | 74 | 135 | 5.0 | 11.0 | 0.00 | 0.00 | 0.00 | 38 | 1011.0 |
| 20260902045627 | 74 | 120 | 6.0 | 10.0 | 0.00 | 0.00 | 0.00 | 38 | 1011.0 |
| 20260902044618 | 74 | 132 | 5.0 | 10.0 | 0.00 | 0.00 | 0.00 | 37 | 1011.0 |
| 20260902043648 | 74 | 153 | 3.0 | 8.0 | 0.00 | 0.00 | 0.00 | 36 | 1011.1 |
| 20260902042618 | 75 | 150 | 4.0 | 14.0 | 0.00 | 0.00 | 0.00 | 36 | 1011.1 |
| 20260902041614 | 74 | 126 | 2.0 | 9.0 | 0.00 | 0.00 | 0.00 | 38 | 1011.2 |
| 20260902040626 | 74 | 150 | 2.0 | 7.0 | 0.00 | 0.00 | 0.00 | 38 | 1011.2 |
| 20260902035629 | 74 | 99 | 4.0 | 7.0 | 0.00 | 0.00 | 0.00 | 38 | 1011.2 |
| 20260902034623 | 73 | 130 | 1.0 | 7.0 | 0.00 | 0.00 | 0.00 | 38 | 1011.2 |
| 20260902033615 | 73 | 144 | 1.0 | 4.0 | 0.00 | 0.00 | 0.00 | 39 | 1011.3 |
| 20260902032626 | 73 | 106 | 2.0 | 5.0 | 0.00 | 0.00 | 0.00 | 40 | 1011.2 |
| 20260902031618 | 73 | 140 | 2.0 | 7.0 | 0.00 | 0.00 | 0.00 | 40 | 1011.3 |
| 20260902030613 | 73 | 112 | 3.0 | 7.0 | 0.00 | 0.00 | 0.00 | 40 | 1011.2 |
| 20260902025637 | 73 | 130 | 3.0 | 7.0 | 0.00 | 0.00 | 0.00 | 41 | 1011.2 |
| 20260902024625 | 73 | 142 | 4.0 | 7.0 | 0.00 | 0.00 | 0.00 | 41 | 1011.1 |
| 20260902023615 | 73 | 130 | 3.0 | 7.0 | 0.00 | 0.00 | 0.00 | 41 | 1011.1 |
| 20260902022631 | 74 | 137 | 3.0 | 5.0 | 0.00 | 0.00 | 0.00 | 40 | 1011.1 |
| 20260902021623 | 75 | 144 | 3.0 | 9.0 | 0.00 | 0.00 | 0.00 | 39 | 1011.0 |
| 20260902020614 | 76 | 114 | 3.0 | 8.0 | 0.00 | 0.00 | 0.00 | 38 | 1011.2 |
| 20260902015618 | 76 | 159 | 0.0 | 5.0 | 0.00 | 0.00 | 0.00 | 37 | 1011.2 |
| 20260902014614 | 77 | 176 | 2.0 | 8.0 | 0.00 | 0.00 | 0.00 | 37 | 1011.3 |
| 20260902013625 | 77 | 211 | 4.0 | 10.0 | 0.00 | 0.00 | 0.00 | 36 | 1011.4 |
| 20260902012617 | 78 | 190 | 4.0 | 11.0 | 0.00 | 0.00 | 0.00 | 35 | 1011.5 |
| 20260902011613 | 78 | 201 | 5.0 | 12.0 | 0.00 | 0.00 | 0.00 | 37 | 1011.5 |
| 20260902010623 | 78 | 182 | 4.0 | 7.0 | 0.00 | 0.00 | 0.00 | 36 | 1011.6 |
| 20260902005626 | 79 | 188 | 7.0 | 13.0 | 0.00 | 0.00 | 0.00 | 35 | 1011.7 |
| 20260902004618 | 79 | 185 | 6.0 | 16.0 | 0.00 | 0.00 | 0.00 | 35 | 1011.9 |
| 20260902003615 | 79 | 175 | 7.0 | 12.0 | 0.00 | 0.00 | 0.00 | 36 | 1011.9 |
| 20260902002625 | 79 | 211 | 7.0 | 16.0 | 0.00 | 0.00 | 0.00 | 35 | 1011.9 |
| 20260902001615 | 79 | 166 | 7.0 | 15.0 | 0.00 | 0.00 | 0.00 | 34 | 1011.9 |
| 20260902000629 | 79 | 164 | 9.0 | 15.0 | 0.00 | 0.00 | 0.00 | 34 | 1012.1 |
| 20260901235631 | 80 | 211 | 9.0 | 14.0 | 0.00 | 0.00 | 0.00 | 34 | 1012.0 |
| 20260901234623 | 80 | 219 | 7.0 | 17.0 | 0.00 | 0.00 | 0.00 | 33 | 1012.1 |
| 20260901233631 | 80 | 188 | 9.0 | 13.0 | 0.00 | 0.00 | 0.00 | 34 | 1012.1 |
| 20260901232620 | 80 | 175 | 10.0 | 16.0 | 0.00 | 0.00 | 0.00 | 34 | 1012.3 |
| 20260901231614 | 80 | 196 | 12.0 | 18.0 | 0.00 | 0.00 | 0.00 | 32 | 1012.6 |
| 20260901230621 | 79 | 198 | 10.0 | 16.0 | 0.00 | 0.00 | 0.00 | 36 | 1013.0 |
| 20260901225642 | 79 | 187 | 8.0 | 14.0 | 0.00 | 0.00 | 0.00 | 37 | 1013.1 |
| 20260901224631 | 79 | 198 | 9.0 | 14.0 | 0.00 | 0.00 | 0.00 | 37 | 1013.1 |
| 20260901223620 | 80 | 223 | 7.0 | 14.0 | 0.00 | 0.00 | 0.00 | 38 | 1013.2 |
| 20260901222633 | 80 | 188 | 7.0 | 15.0 | 0.00 | 0.00 | 0.00 | 37 | 1013.4 |
| 20260901221622 | 79 | 200 | 9.0 | 16.0 | 0.00 | 0.00 | 0.00 | 37 | 1013.4 |
| 20260901220612 | 79 | 202 | 8.0 | 16.0 | 0.00 | 0.00 | 0.00 | 38 | 1013.5 |
| 20260901215613 | 79 | 175 | 8.0 | 16.0 | 0.00 | 0.00 | 0.00 | 38 | 1013.7 |
| 20260901214627 | 79 | 203 | 8.0 | 16.0 | 0.00 | 0.00 | 0.00 | 40 | 1013.8 |
| 20260901213615 | 79 | 226 | 7.0 | 16.0 | 0.00 | 0.00 | 0.00 | 40 | 1013.9 |
| 20260901212624 | 79 | 224 | 8.0 | 17.0 | 0.00 | 0.00 | 0.00 | 41 | 1014.2 |
| 20260901211614 | 79 | 188 | 11.0 | 20.0 | 0.00 | 0.00 | 0.00 | 41 | 1014.4 |
| 20260901210627 | 78 | 157 | 11.0 | 17.0 | 0.00 | 0.00 | 0.00 | 42 | 1014.6 |
| 20260901205629 | 78 | 194 | 10.0 | 13.0 | 0.00 | 0.00 | 0.00 | 41 | 1014.7 |
| 20260901204619 | 77 | 190 | 10.0 | 18.0 | 0.00 | 0.00 | 0.00 | 43 | 1014.9 |
| 20260901203630 | 77 | 178 | 13.0 | 18.0 | 0.00 | 0.00 | 0.00 | 42 | 1015.0 |
| 20260901202624 | 78 | 231 | 9.0 | 18.0 | 0.00 | 0.00 | 0.00 | 42 | 1015.1 |
| 20260901201614 | 78 | 170 | 11.0 | 17.0 | 0.00 | 0.00 | 0.00 | 41 | 1015.2 |
| 20260901200645 | 77 | 223 | 8.0 | 15.0 | 0.00 | 0.00 | 0.00 | 42 | 1015.3 |
| 20260901195625 | 76 | 175 | 9.0 | 15.0 | 0.00 | 0.00 | 0.00 | 43 | 1015.5 |
| 20260901194619 | 76 | 163 | 9.0 | 16.0 | 0.00 | 0.00 | 0.00 | 43 | 1015.7 |
| 20260901193649 | 77 | 206 | 8.0 | 15.0 | 0.00 | 0.00 | 0.00 | 42 | 1015.8 |
| 20260901192618 | 77 | 192 | 10.0 | 22.0 | 0.00 | 0.00 | 0.00 | 42 | 1015.9 |
| 20260901191628 | 76 | 218 | 8.0 | 13.0 | 0.00 | 0.00 | 0.00 | 43 | 1015.9 |
| 20260901190623 | 76 | 218 | 8.0 | 14.0 | 0.00 | 0.00 | 0.00 | 43 | 1016.1 |
| 20260901185627 | 76 | 169 | 7.0 | 14.0 | 0.00 | 0.00 | 0.00 | 43 | 1016.2 |
| 20260901184616 | 74 | 235 | 7.0 | 12.0 | 0.00 | 0.00 | 0.00 | 46 | 1016.4 |
| 20260901183625 | 74 | 209 | 6.0 | 10.0 | 0.00 | 0.00 | 0.00 | 46 | 1016.4 |
| 20260901182618 | 73 | 170 | 7.0 | 11.0 | 0.00 | 0.00 | 0.00 | 47 | 1016.5 |
| 20260901181627 | 73 | 243 | 4.0 | 10.0 | 0.00 | 0.00 | 0.00 | 47 | 1016.7 |
| 20260901180625 | 73 | 194 | 7.0 | 10.0 | 0.00 | 0.00 | 0.00 | 47 | 1016.7 |
| 20260901175626 | 72 | 194 | 6.0 | 11.0 | 0.00 | 0.00 | 0.00 | 47 | 1016.9 |
| 20260901174621 | 72 | 196 | 6.0 | 10.0 | 0.00 | 0.00 | 0.00 | 46 | 1016.9 |
| 20260901173630 | 72 | 205 | 4.0 | 11.0 | 0.00 | 0.00 | 0.00 | 46 | 1017.0 |
| 20260901172617 | 72 | 224 | 7.0 | 11.0 | 0.00 | 0.00 | 0.00 | 44 | 1017.1 |
| 20260901171646 | 72 | 194 | 8.0 | 12.0 | 0.00 | 0.00 | 0.00 | 46 | 1017.0 |
| 20260901170618 | 72 | 210 | 5.0 | 9.0 | 0.00 | 0.00 | 0.00 | 48 | 1017.1 |
| 20260901165618 | 71 | 188 | 6.0 | 11.0 | 0.00 | 0.00 | 0.00 | 47 | 1017.2 |
| 20260901164626 | 71 | 208 | 7.0 | 12.0 | 0.00 | 0.00 | 0.00 | 47 | 1017.1 |
| 20260901163636 | 71 | 213 | 7.0 | 13.0 | 0.00 | 0.00 | 0.00 | 49 | 1017.1 |
| 20260901162627 | 69 | 232 | 1.0 | 5.0 | 0.00 | 0.00 | 0.00 | 56 | 1017.1 |
| 20260901161622 | 68 | 184 | 3.0 | 7.0 | 0.00 | 0.00 | 0.00 | 57 | 1017.0 |
| 20260901160614 | 67 | 221 | 1.0 | 5.0 | 0.00 | 0.00 | 0.00 | 61 | 1017.0 |
| 20260901155616 | 67 | 233 | 1.0 | 5.0 | 0.00 | 0.00 | 0.00 | 64 | 1017.2 |
| 20260901154648 | 67 | 244 | 0.0 | 3.0 | 0.00 | 0.00 | 0.00 | 65 | 1017.1 |
| 20260901153622 | 66 | 245 | 0.0 | 3.0 | 0.00 | 0.00 | 0.00 | 67 | 1017.1 |
| 20260901152614 | 66 | 232 | 2.0 | 5.0 | 0.00 | 0.00 | 0.00 | 67 | 1017.0 |
| 20260901151625 | 65 | 232 | 2.0 | 4.0 | 0.00 | 0.00 | 0.00 | 67 | 1017.2 |
| 20260901150619 | 65 | 66 | 0.0 | 7.0 | 0.00 | 0.00 | 0.00 | 69 | 1017.2 |
| 20260901145621 | 64 | 360 | 0.0 | 2.0 | 0.00 | 0.00 | 0.00 | 72 | 1017.3 |
| 20260901144612 | 63 | 360 | 0.0 | 1.0 | 0.00 | 0.00 | 0.00 | 73 | 1017.4 |
| 20260901143623 | 62 | 360 | 0.0 | 2.0 | 0.00 | 0.00 | 0.00 | 75 | 1017.2 |